Weather History for Moorhead, MN

Change the Weather History Date:

Tuesday, October 1, 2013

  Actual Average (KFAR) Record (KFAR)
Temperature  
Mean Temperature 60 °F 52 °F  
Max Temperature 69 °F 64 °F 90 °F (1992)
Min Temperature 51 °F 41 °F 10 °F (1886)
Degree Days  
Heating Degree Days 5 13  
Month to date heating degree days 13  
Since 1 July heating degree days 283  
Cooling Degree Days 0 0  
Month to date cooling degree days 0  
Year to date cooling degree days 548  
Growing Degree Days 10 (Base 50)    
Moisture  
Dew Point 39 °F    
Average Humidity 52    
Maximum Humidity 88    
Minimum Humidity 14    
Precipitation  
Precipitation 0.00 in 0.08 in 1.98 in (2009)
Month to date precipitation 0.08  
Year to date precipitation 18.71  
Snow  
Snow 0.00 in 0.00 in T in (1996)
Month to date snowfall 0.0  
Since 1 July snowfall 0.0  
Since 1 September snowfall 0.0  
Snow Depth -    
Sea Level Pressure  
Sea Level Pressure 29.78 in    
Wind  
Wind Speed 12 mph (West)    
Max Wind Speed 24 mph    
Max Gust Speed 30 mph    
Visibility 10 miles    
Events Rain    
T = Trace of Precipitation, MM = Missing Value Source: NWS Daily Summary

Daily Weather History Graph

Daily Weather History Graph

Search for Another Location

Airport:

Trip Planner

Search our weather history database for the weather conditions in past years. The results will help you decide how hot, cold, wet, or windy it might be!

Date:

Astronomy

Oct. 01, 2013 Rise Set
Actual Time 7:25 AM CDT 7:05 PM CDT
Civil Twilight 6:55 AM CDT 7:35 PM CDT
Nautical Twilight 6:20 AM CDT 8:11 PM CDT
Astronomical Twilight 5:44 AM CDT 8:46 PM CDT
Moon 3:50 AM CDT (10/1) 5:18 PM CDT (10/1)
Length of Visible Light 12h 40m
Length of Day
11h 40m
Waning Crescent, 12% of the Moon is Illuminated
Oct 1
Waning Crescent
Oct 4
New
Oct 11
First Quarter
Oct 18
Full
Oct 26
Last Quarter

Hourly Weather History & Observations

Time (CDT) Temp. Dew Point Humidity Pressure Visibility Wind Dir Wind Speed Gust Speed Precip Events Conditions
12:15 AM 66.2 °F 57.2 °F 73% 29.51 in 10.0 mi SSW 6.9 mph - N/A   Scattered Clouds
12:34 AM 64.4 °F 57.2 °F 77% 29.53 in 10.0 mi West 11.5 mph 21.9 mph N/A   Scattered Clouds
12:55 AM 64.4 °F 53.6 °F 68% 29.55 in 10.0 mi NW 17.3 mph 27.6 mph N/A   Clear
1:14 AM 64.4 °F 53.6 °F 68% 29.56 in 10.0 mi NNW 16.1 mph 20.7 mph N/A   Mostly Cloudy
1:35 AM 62.6 °F 53.6 °F 72% 29.57 in 10.0 mi NNW 11.5 mph 20.7 mph N/A Rain Light Rain
1:55 AM 60.8 °F 55.4 °F 82% 29.57 in 10.0 mi North 4.6 mph - N/A   Light Drizzle
2:14 AM 60.8 °F 53.6 °F 77% 29.57 in 10.0 mi North 5.8 mph - N/A   Scattered Clouds
2:35 AM 59.0 °F 55.4 °F 88% 29.59 in 10.0 mi NW 3.5 mph - N/A Rain Light Rain
2:55 AM 59.0 °F 53.6 °F 82% 29.62 in 10.0 mi WNW 5.8 mph - N/A   Mostly Cloudy
3:14 AM 60.8 °F 51.8 °F 72% 29.62 in 10.0 mi NW 13.8 mph 18.4 mph N/A   Mostly Cloudy
3:35 AM 60.8 °F 51.8 °F 72% 29.62 in 10.0 mi NW 10.4 mph - N/A   Mostly Cloudy
3:55 AM 59.0 °F 51.8 °F 77% 29.63 in 10.0 mi WNW 9.2 mph - N/A   Mostly Cloudy
4:14 AM 59.0 °F 51.8 °F 77% 29.64 in 10.0 mi WNW 9.2 mph - N/A   Scattered Clouds
4:35 AM 59.0 °F 51.8 °F 77% 29.65 in 10.0 mi WNW 10.4 mph - N/A   Clear
4:55 AM 57.2 °F 50.0 °F 77% 29.67 in 10.0 mi West 9.2 mph - N/A   Clear
5:15 AM 57.2 °F 50.0 °F 77% 29.68 in 10.0 mi West 9.2 mph 16.1 mph N/A   Clear
5:35 AM 55.4 °F 48.2 °F 77% 29.69 in 10.0 mi West 10.4 mph - N/A   Clear
5:54 AM 55.4 °F 48.2 °F 77% 29.69 in 10.0 mi West 10.4 mph - N/A   Clear
6:15 AM 53.6 °F 48.2 °F 82% 29.70 in 10.0 mi West 10.4 mph - N/A   Clear
6:35 AM 53.6 °F 46.4 °F 77% 29.72 in 10.0 mi West 10.4 mph - N/A   Clear
6:54 AM 53.6 °F 46.4 °F 77% 29.73 in 10.0 mi West 10.4 mph - N/A   Clear
7:15 AM 53.6 °F 46.4 °F 77% 29.73 in 10.0 mi West 13.8 mph - N/A   Clear
7:35 AM 51.8 °F 46.4 °F 82% 29.74 in 10.0 mi West 11.5 mph - N/A   Clear
7:54 AM 51.8 °F 46.4 °F 82% 29.75 in 10.0 mi West 10.4 mph - N/A   Clear
8:15 AM 53.6 °F 44.6 °F 72% 29.76 in 10.0 mi West 12.7 mph - N/A   Clear
8:35 AM 53.6 °F 44.6 °F 72% 29.77 in 10.0 mi West 15.0 mph - N/A   Clear
8:54 AM 55.4 °F 44.6 °F 67% 29.78 in 10.0 mi West 12.7 mph - N/A   Clear
9:15 AM 55.4 °F 42.8 °F 63% 29.79 in 10.0 mi West 12.7 mph - N/A   Clear
9:34 AM 57.2 °F 41.0 °F 55% 29.80 in 10.0 mi West 17.3 mph 21.9 mph N/A   Clear
9:55 AM 59.0 °F 41.0 °F 51% 29.80 in 10.0 mi West 16.1 mph - N/A   Clear
10:15 AM 60.8 °F 39.2 °F 45% 29.81 in 10.0 mi West 17.3 mph 23.0 mph N/A   Clear
10:34 AM 60.8 °F 39.2 °F 45% 29.81 in 10.0 mi West 18.4 mph 23.0 mph N/A   Clear
10:55 AM 60.8 °F 39.2 °F 45% 29.82 in 10.0 mi West 18.4 mph 23.0 mph N/A   Clear
11:15 AM 62.6 °F 37.4 °F 39% 29.82 in 10.0 mi West 16.1 mph - N/A   Clear
11:34 AM 62.6 °F 33.8 °F 34% 29.83 in 10.0 mi West 17.3 mph 21.9 mph N/A   Clear
11:55 AM 62.6 °F 35.6 °F 37% 29.83 in 10.0 mi West 17.3 mph 24.2 mph N/A   Clear
12:15 PM 64.4 °F 35.6 °F 34% 29.83 in 10.0 mi West 18.4 mph - N/A   Clear
12:35 PM 64.4 °F 35.6 °F 34% 29.83 in 10.0 mi West 19.6 mph 25.3 mph N/A   Clear
12:55 PM 66.2 °F 30.2 °F 26% 29.83 in 10.0 mi West 15.0 mph 23.0 mph N/A   Clear
1:14 PM 68.0 °F 30.2 °F 24% 29.83 in 10.0 mi West 17.3 mph 23.0 mph N/A   Clear
1:35 PM 68.0 °F 28.4 °F 23% 29.83 in 10.0 mi West 24.2 mph - N/A   Clear
1:55 PM 69.8 °F 23.0 °F 17% 29.83 in 10.0 mi West 20.7 mph 28.8 mph N/A   Clear
2:14 PM 69.8 °F 26.6 °F 20% 29.83 in 10.0 mi West 20.7 mph - N/A   Clear
2:35 PM 69.8 °F 21.2 °F 16% 29.83 in 10.0 mi West 18.4 mph 27.6 mph N/A   Clear
2:55 PM 69.8 °F 17.6 °F 14% 29.83 in 10.0 mi West 21.9 mph 29.9 mph N/A   Clear
3:15 PM 69.8 °F 19.4 °F 15% 29.84 in 10.0 mi West 20.7 mph 28.8 mph N/A   Clear
3:34 PM 69.8 °F 19.4 °F 15% 29.84 in 10.0 mi West 18.4 mph 23.0 mph N/A   Clear
3:55 PM 69.8 °F 21.2 °F 16% 29.84 in 10.0 mi West 19.6 mph 24.2 mph N/A   Clear
4:15 PM 69.8 °F 17.6 °F 14% 29.84 in 10.0 mi WNW 20.7 mph 27.6 mph N/A   Clear
4:34 PM 69.8 °F 19.4 °F 15% 29.84 in 10.0 mi WNW 19.6 mph 27.6 mph N/A   Clear
4:55 PM 69.8 °F 19.4 °F 15% 29.84 in 10.0 mi West 20.7 mph 25.3 mph N/A   Clear
5:15 PM 69.8 °F 17.6 °F 14% 29.85 in 10.0 mi West 19.6 mph 27.6 mph N/A   Clear
5:34 PM 69.8 °F 21.2 °F 16% 29.85 in 10.0 mi West 17.3 mph 25.3 mph N/A   Clear
5:55 PM 69.8 °F 24.8 °F 18% 29.86 in 10.0 mi West 16.1 mph 20.7 mph N/A   Clear
6:15 PM 68.0 °F 26.6 °F 21% 29.86 in 10.0 mi West 15.0 mph 18.4 mph N/A   Clear
6:34 PM 66.2 °F 28.4 °F 24% 29.87 in 10.0 mi West 10.4 mph - N/A   Clear
6:55 PM 62.6 °F 33.8 °F 34% 29.87 in 10.0 mi WNW 9.2 mph - N/A   Clear
7:15 PM 60.8 °F 35.6 °F 39% 29.87 in 10.0 mi WNW 6.9 mph - N/A   Clear
7:34 PM 59.0 °F 35.6 °F 42% 29.88 in 10.0 mi West 8.1 mph - N/A   Clear
7:55 PM 60.8 °F 35.6 °F 39% 29.89 in 10.0 mi West 5.8 mph - N/A   Clear
8:15 PM 55.4 °F 37.4 °F 51% 29.89 in 10.0 mi West 6.9 mph - N/A   Clear
8:34 PM 57.2 °F 37.4 °F 48% 29.90 in 10.0 mi WSW 5.8 mph - N/A   Clear
8:55 PM 55.4 °F 39.2 °F 54% 29.90 in 10.0 mi WSW 5.8 mph - N/A   Clear
9:14 PM 55.4 °F 37.4 °F 51% 29.91 in 10.0 mi WSW 4.6 mph - N/A   Clear
9:35 PM 53.6 °F 41.0 °F 62% 29.91 in 10.0 mi SW 8.1 mph - N/A   Clear
9:55 PM 53.6 °F 39.2 °F 58% 29.92 in 10.0 mi SW 8.1 mph - N/A   Clear
10:14 PM 53.6 °F 39.2 °F 58% 29.93 in 10.0 mi SW 5.8 mph - N/A   Clear
10:35 PM 53.6 °F 39.2 °F 58% 29.93 in 10.0 mi SW 8.1 mph - N/A   Clear
10:55 PM 51.8 °F 41.0 °F 67% 29.94 in 10.0 mi SW 8.1 mph - N/A   Clear
11:14 PM 51.8 °F 39.2 °F 62% 29.94 in 10.0 mi SW 6.9 mph - N/A   Clear
11:35 PM 51.8 °F 39.2 °F 62% 29.95 in 10.0 mi SSW 4.6 mph - N/A   Clear
11:55 PM 51.8 °F 41.0 °F 67% 29.96 in 10.0 mi SSW 3.5 mph - N/A   Clear